Date String (YYYY-MM-DD hh:mm:ss) UTC,Instrument flags,absolute air pressure of the measurement (hPa),sample flow rate (lpm),inlet stack bypass flow (lpm),air temperature of the measurement (°C),ambient temperature measured by the external sensor (°C),aerosol sample conditioner tube jacket temperature (°C),OPC LED temperature (°C),internal box temperature (°C),relative humidity of the measurement (%),span deviation,mass concentration of particles derived from Lorenz-Mie calculation of OPC scattering (μg/m³),mass concentration of particles derived from Lorenz-Mie calculation of OPC scattering (μg/m³),mass concentration of particles derived from Lorenz-Mie calculation of OPC scattering (μg/m³)
DateTimeUTC,F1_M11,P_M11,Q1_M11,Q2_M11,T1_M11,T2_M11,T3_M11,T4_M11,T5_M11,U1_M11,ZSPAN_M11,X0_M11,X2_M11,X1_M11
2023-11-19 11:00:00,SystemResetWarning,0822.4,5.01,000.00,023.8,022.8,000.0,032.1,025.2,14.0,0000.0,0000.90,0000.70,0000.62
2023-11-19 11:01:00,SystemResetWarning,0822.4,5.00,000.00,023.8,022.7,000.0,032.1,025.1,14.0,0000.0,0000.94,0000.73,0000.63
2023-11-19 11:02:00,SystemResetWarning,0822.4,4.99,000.00,023.8,022.7,000.0,032.1,025.1,13.9,0000.0,0000.98,0000.74,0000.63
2023-11-19 11:03:00,SystemResetWarning,0822.4,5.00,000.00,023.8,022.7,000.0,032.1,025.1,13.9,0000.0,0001.07,0000.76,0000.63
2023-11-19 11:04:00,SystemResetWarning,0822.4,5.00,000.00,023.8,022.7,000.0,032.1,025.1,13.9,0000.0,0001.12,0000.76,0000.62
2023-11-19 11:05:00,SystemResetWarning,0822.4,5.00,000.00,023.8,022.7,000.0,032.1,025.1,13.8,0000.0,0001.14,0000.77,0000.62
2023-11-19 11:06:00,SystemResetWarning,0822.4,5.00,000.00,023.8,022.7,000.0,032.1,025.1,13.6,0000.0,0001.17,0000.77,0000.62
2023-11-19 11:07:00,SystemResetWarning,0822.4,5.00,000.00,023.7,022.7,000.0,032.1,025.1,13.5,0000.0,0001.19,0000.77,0000.62
2023-11-19 11:08:00,SystemResetWarning,0822.4,5.00,000.00,023.7,022.7,000.0,032.1,025.1,13.3,0000.0,0001.20,0000.77,0000.62
2023-11-19 11:09:00,SystemResetWarning,0822.4,5.00,000.00,023.7,022.7,000.0,032.1,025.1,13.4,0000.0,0001.18,0000.76,0000.62
2023-11-19 11:10:00,SystemResetWarning,0822.4,5.00,000.00,023.7,022.7,000.0,032.1,025.1,13.6,0000.0,0001.15,0000.75,0000.62
2023-11-19 11:11:00,SystemResetWarning,0822.4,5.00,000.00,023.7,022.7,000.0,032.1,025.1,13.5,0000.0,0001.19,0000.76,0000.61
2023-11-19 11:12:00,SystemResetWarning,0822.4,5.00,000.00,023.7,022.7,000.0,032.1,025.1,13.2,0000.0,0001.18,0000.75,0000.60
2023-11-19 11:13:00,SystemResetWarning,0822.4,4.99,000.00,023.7,022.7,000.0,032.1,025.1,13.3,0000.0,0001.28,0000.78,0000.61
2023-11-19 11:14:00,SystemResetWarning,0822.4,5.00,000.00,023.7,022.7,000.0,032.1,025.1,13.3,0000.0,0001.23,0000.77,0000.61
2023-11-19 11:15:00,SystemResetWarning,0822.3,5.00,000.00,023.7,022.7,000.0,032.1,025.1,13.0,0000.0,0001.16,0000.77,0000.61
2023-11-19 11:16:00,SystemResetWarning,0822.4,5.00,000.00,023.8,022.7,000.0,032.1,025.1,13.0,0000.0,0001.54,0000.77,0000.62
2023-11-19 11:17:00,SystemResetWarning,0822.3,5.00,000.00,023.7,022.7,000.0,032.1,025.1,13.1,0000.0,0001.56,0000.77,0000.61
2023-11-19 11:18:00,SystemResetWarning,0822.4,5.00,000.00,023.8,022.7,000.0,032.1,025.1,13.2,0000.0,0001.50,0000.75,0000.61
2023-11-19 11:19:00,SystemResetWarning,0822.4,5.00,000.00,023.8,022.7,000.0,032.1,025.1,13.0,0000.0,0001.48,0000.74,0000.61
2023-11-19 11:20:00,SystemResetWarning,0822.4,5.00,000.00,023.8,022.7,000.0,032.1,025.1,13.3,0000.0,0001.51,0000.75,0000.61
2023-11-19 11:21:00,SystemResetWarning,0822.4,4.99,000.00,023.8,022.7,000.0,032.1,025.1,13.2,0000.0,0001.62,0000.79,0000.62
2023-11-19 11:22:00,SystemResetWarning,0822.4,5.00,000.00,023.8,022.7,000.0,032.1,025.1,13.2,0000.0,0001.60,0000.79,0000.62
2023-11-19 11:23:00,SystemResetWarning,0822.4,5.00,000.00,023.7,022.7,000.0,032.1,025.1,13.2,0000.0,0001.57,0000.77,0000.62
2023-11-19 11:24:00,SystemResetWarning,0822.4,5.00,000.00,023.7,022.6,000.0,032.1,025.1,13.3,0000.0,0001.52,0000.76,0000.63
2023-11-19 11:25:00,SystemResetWarning,0822.4,4.99,000.00,023.7,022.6,000.0,032.1,025.0,13.2,0000.0,0001.46,0000.75,0000.63
2023-11-19 11:26:00,SystemResetWarning,0822.4,5.01,000.00,023.7,022.6,000.0,032.1,025.0,13.2,0000.0,0001.51,0000.77,0000.64
2023-11-19 11:27:00,SystemResetWarning,0822.4,5.01,000.00,023.7,022.6,000.0,032.1,025.0,13.2,0000.0,0001.32,0000.78,0000.64
2023-11-19 11:28:00,SystemResetWarning,0822.4,5.00,000.00,023.7,022.6,000.0,032.1,025.0,13.2,0000.0,0001.15,0000.78,0000.64
2023-11-19 11:29:00,SystemResetWarning,0822.4,5.00,000.00,023.7,022.6,000.0,032.1,025.0,13.1,0000.0,0001.19,0000.80,0000.65
2023-11-19 11:30:00,SystemResetWarning,0822.4,4.99,000.00,023.7,022.6,000.0,032.1,025.0,13.2,0000.0,0001.21,0000.81,0000.66
2023-11-19 11:31:00,SystemResetWarning,0822.4,4.99,000.00,023.7,022.6,000.0,032.1,025.0,13.1,0000.0,0001.19,0000.81,0000.67
2023-11-19 11:32:00,SystemResetWarning,0822.4,5.00,000.00,023.7,022.6,000.0,032.1,025.0,13.1,0000.0,0001.12,0000.80,0000.67
2023-11-19 11:33:00,SystemResetWarning,0822.4,5.01,000.00,023.7,022.6,000.0,032.1,025.0,13.2,0000.0,0001.11,0000.80,0000.67
2023-11-19 11:34:00,SystemResetWarning,0822.4,5.01,000.00,023.7,022.6,000.0,032.1,025.0,13.2,0000.0,0001.16,0000.81,0000.67
2023-11-19 11:35:00,SystemResetWarning,0822.4,5.00,000.00,023.7,022.6,000.0,032.1,025.0,13.2,0000.0,0001.16,0000.81,0000.66
2023-11-19 11:36:00,SystemResetWarning,0822.4,4.99,000.00,023.7,022.6,000.0,032.1,025.0,13.3,0000.0,0001.22,0000.80,0000.65
2023-11-19 11:37:00,SystemResetWarning,0822.4,4.99,000.00,023.7,022.6,000.0,032.1,025.0,13.2,0000.0,0001.19,0000.78,0000.64
2023-11-19 11:38:00,SystemResetWarning,0822.4,4.99,000.00,023.7,022.6,000.0,032.1,025.0,13.2,0000.0,0001.13,0000.76,0000.64
2023-11-19 11:39:00,SystemResetWarning,0822.4,5.00,000.00,023.7,022.7,000.0,032.1,025.1,13.2,0000.0,0001.09,0000.75,0000.64
2023-11-19 11:40:00,SystemResetWarning,0822.4,5.01,000.00,023.7,022.7,000.0,032.1,025.1,13.3,0000.0,0001.05,0000.73,0000.63
2023-11-19 11:41:00,SystemResetWarning,0822.4,5.01,000.00,023.7,022.7,000.0,032.1,025.1,13.3,0000.0,0001.06,0000.74,0000.64
2023-11-19 11:42:00,SystemResetWarning,0822.4,5.00,000.00,023.7,022.8,000.0,032.1,025.1,13.2,0000.0,0001.06,0000.74,0000.64
2023-11-19 11:43:00,SystemResetWarning,0822.4,4.99,000.00,023.8,022.8,000.0,032.1,025.1,13.2,0000.0,0001.04,0000.72,0000.63
2023-11-19 11:44:00,SystemResetWarning,0822.4,5.00,000.00,023.8,022.8,000.0,032.1,025.1,13.2,0000.0,0001.05,0000.72,0000.63
2023-11-19 11:45:00,SystemResetWarning,0822.4,4.99,000.00,023.8,022.8,000.0,032.1,025.1,13.2,0000.0,0001.04,0000.72,0000.63
2023-11-19 11:46:00,SystemResetWarning,0822.4,5.00,000.00,023.8,022.8,000.0,032.1,025.1,13.2,0000.0,0001.03,0000.71,0000.63
2023-11-19 11:47:00,SystemResetWarning,0822.4,5.01,000.00,023.8,022.8,000.0,032.1,025.1,13.2,0000.0,0001.06,0000.74,0000.64
2023-11-19 11:48:00,SystemResetWarning,0822.4,5.00,000.00,023.8,022.8,000.0,032.1,025.1,13.2,0000.0,0001.06,0000.75,0000.64
2023-11-19 11:49:00,SystemResetWarning,0822.4,5.01,000.00,023.8,022.8,000.0,032.1,025.1,13.2,0000.0,0001.06,0000.76,0000.64
2023-11-19 11:50:00,SystemResetWarning,0822.5,5.00,000.00,023.8,022.7,000.0,032.1,025.1,13.1,0000.0,0001.10,0000.77,0000.64
2023-11-19 11:51:00,SystemResetWarning,0822.4,5.00,000.00,023.8,022.7,000.0,032.1,025.1,13.2,0000.0,0001.14,0000.78,0000.64
2023-11-19 11:52:00,SystemResetWarning,0822.4,5.00,000.00,023.8,022.7,000.0,032.1,025.1,13.2,0000.0,0001.16,0000.78,0000.64
2023-11-19 11:53:00,SystemResetWarning,0822.4,5.00,000.00,023.8,022.7,000.0,032.1,025.1,13.2,0000.0,0001.17,0000.78,0000.63
2023-11-19 11:54:00,SystemResetWarning,0822.4,5.00,000.00,023.8,022.7,000.0,032.1,025.1,13.2,0000.0,0001.17,0000.79,0000.63
2023-11-19 11:55:00,SystemResetWarning,0822.4,4.99,000.00,023.8,022.7,000.0,032.1,025.1,13.2,0000.0,0001.18,0000.80,0000.63
2023-11-19 11:56:00,SystemResetWarning,0822.4,5.00,000.00,023.8,022.8,000.0,032.1,025.0,13.2,0000.0,0001.43,0000.80,0000.62
2023-11-19 11:57:00,SystemResetWarning,0822.4,5.00,000.00,023.8,022.8,000.0,032.1,025.0,13.3,0000.0,0002.20,0000.81,0000.62
2023-11-19 11:58:00,SystemResetWarning,0822.4,5.00,000.00,023.8,022.7,000.0,032.1,025.0,13.4,0000.0,0002.09,0000.77,0000.63
2023-11-19 11:59:00,SystemResetWarning,0822.4,5.00,000.00,023.7,022.7,000.0,032.1,025.0,13.4,0000.0,0002.11,0000.75,0000.62
